| time (UTC) | temp C | wind direction | speed KPH | gust KPH | rain 1hr cm | rain 24hr cm | rain mn cm | humidity % | barometer mb |
| 20260506224318 | 15 | 0 | 1.6 | 9.7 | 0.00 | 3.48 | 0.00 | 81 | 1014.2 |
| 20260506223821 | 15 | 0 | 4.8 | 9.7 | 0.00 | 3.48 | 0.00 | 81 | 1014.2 |
| 20260506223318 | 15 | 0 | 6.4 | 22.5 | 0.00 | 3.48 | 0.00 | 81 | 1014.1 |
| 20260506222824 | 15 | 0 | 6.4 | 22.5 | 0.00 | 3.48 | 0.00 | 81 | 1014.2 |
| 20260506222321 | 15 | 0 | 3.2 | 12.9 | 0.00 | 3.48 | 0.00 | 81 | 1014.2 |
| 20260506221824 | 15 | 0 | 3.2 | 8.0 | 0.00 | 3.48 | 0.00 | 81 | 1014.2 |
| 20260506221327 | 15 | 0 | 1.6 | 14.5 | 0.00 | 3.48 | 0.00 | 82 | 1014.2 |
| 20260506220821 | 15 | 0 | 1.6 | 12.9 | 0.00 | 3.48 | 0.00 | 81 | 1014.3 |
| 20260506220318 | 15 | 0 | 4.8 | 12.9 | 0.00 | 3.48 | 0.00 | 82 | 1014.2 |
| 20260506215818 | 15 | 0 | 3.2 | 12.9 | 0.00 | 3.48 | 0.00 | 81 | 1014.2 |
| 20260506215324 | 15 | 0 | 3.2 | 16.1 | 0.00 | 3.48 | 0.00 | 81 | 1014.2 |
| 20260506214824 | 15 | 0 | 1.6 | 12.9 | 0.00 | 3.48 | 0.00 | 81 | 1014.2 |
| 20260506214327 | 15 | 0 | 8.0 | 9.7 | 0.00 | 3.48 | 0.00 | 82 | 1014.3 |
| 20260506213824 | 15 | 0 | 3.2 | 17.7 | 0.00 | 3.48 | 0.00 | 82 | 1014.2 |
| 20260506213321 | 15 | 0 | 3.2 | 8.0 | 0.00 | 3.48 | 0.00 | 82 | 1014.3 |
| 20260506212818 | 15 | 0 | 9.7 | 20.9 | 0.00 | 3.48 | 0.00 | 82 | 1014.3 |
| 20260506212318 | 15 | 0 | 6.4 | 17.7 | 0.00 | 3.48 | 0.00 | 82 | 1014.2 |
| 20260506211818 | 15 | 0 | 3.2 | 14.5 | 0.00 | 3.48 | 0.00 | 82 | 1014.3 |
| 20260506211321 | 15 | 0 | 3.2 | 12.9 | 0.00 | 3.48 | 0.00 | 82 | 1014.2 |
| 20260506210824 | 15 | 0 | 3.2 | 9.7 | 0.00 | 3.48 | 0.00 | 82 | 1014.2 |
| 20260506210318 | 15 | 0 | 3.2 | 9.7 | 0.00 | 3.48 | 0.00 | 82 | 1014.1 |
| 20260506205821 | 15 | 0 | 4.8 | 9.7 | 0.00 | 3.48 | 0.00 | 82 | 1014.2 |
| 20260506205324 | 15 | 0 | 6.4 | 14.5 | 0.00 | 3.48 | 0.00 | 82 | 1014.3 |
| 20260506204818 | 15 | 0 | 3.2 | 14.5 | 0.00 | 3.48 | 0.00 | 82 | 1014.2 |
| 20260506204321 | 15 | 0 | 1.6 | 14.5 | 0.00 | 3.48 | 0.00 | 82 | 1014.2 |
| 20260506203821 | 15 | 0 | 0.0 | 8.0 | 0.00 | 3.48 | 0.00 | 82 | 1014.0 |
| 20260506203321 | 15 | 0 | 4.8 | 12.9 | 0.00 | 3.48 | 0.00 | 82 | 1014.1 |
| 20260506202818 | 15 | 0 | 8.0 | 9.7 | 0.00 | 3.48 | 0.00 | 82 | 1014.0 |
| 20260506202318 | 15 | 0 | 6.4 | 12.9 | 0.00 | 3.48 | 0.00 | 82 | 1014.0 |
| 20260506201818 | 15 | 0 | 1.6 | 8.0 | 0.00 | 3.48 | 0.00 | 82 | 1014.1 |
| 20260506201318 | 15 | 0 | 1.6 | 12.9 | 0.00 | 3.48 | 0.00 | 82 | 1014.1 |
| 20260506200821 | 15 | 0 | 1.6 | 9.7 | 0.00 | 3.48 | 0.00 | 82 | 1014.1 |
| 20260506200327 | 15 | 0 | 1.6 | 16.1 | 0.00 | 3.48 | 0.00 | 82 | 1013.8 |
| 20260506195818 | 15 | 0 | 6.4 | 17.7 | 0.00 | 3.48 | 0.00 | 82 | 1013.7 |
| 20260506195321 | 15 | 0 | 1.6 | 14.5 | 0.00 | 3.48 | 0.00 | 82 | 1013.6 |
| 20260506194821 | 15 | 0 | 3.2 | 9.7 | 0.00 | 3.48 | 0.00 | 82 | 1013.6 |
| 20260506194321 | 15 | 0 | 3.2 | 9.7 | 0.00 | 3.48 | 0.00 | 82 | 1013.5 |
| 20260506193818 | 15 | 0 | 8.0 | 14.5 | 0.00 | 3.48 | 0.00 | 82 | 1013.4 |
| 20260506193318 | 15 | 0 | 3.2 | 16.1 | 0.00 | 3.48 | 0.00 | 82 | 1013.4 |
| 20260506192821 | 15 | 0 | 8.0 | 12.9 | 0.00 | 3.48 | 0.00 | 82 | 1013.4 |
| 20260506192318 | 15 | 0 | 6.4 | 12.9 | 0.00 | 3.48 | 0.00 | 83 | 1013.3 |
| 20260506191824 | 15 | 0 | 3.2 | 16.1 | 0.00 | 3.48 | 0.00 | 83 | 1013.3 |
| 20260506191324 | 15 | 0 | 1.6 | 8.0 | 0.00 | 3.48 | 0.00 | 83 | 1013.3 |
| 20260506190824 | 15 | 0 | 3.2 | 12.9 | 0.00 | 3.48 | 0.00 | 83 | 1013.2 |
| 20260506190324 | 15 | 0 | 6.4 | 12.9 | 0.00 | 3.48 | 0.00 | 83 | 1013.1 |
| 20260506185818 | 15 | 0 | 4.8 | 6.4 | 0.00 | 3.48 | 0.00 | 84 | 1013.1 |
| 20260506185327 | 15 | 0 | 3.2 | 9.7 | 0.00 | 3.48 | 0.00 | 84 | 1013.0 |
| 20260506184818 | 15 | 0 | 1.6 | 16.1 | 0.00 | 3.48 | 0.00 | 84 | 1013.1 |
| 20260506184321 | 15 | 0 | 3.2 | 16.1 | 0.00 | 3.48 | 0.00 | 84 | 1013.1 |
| 20260506183821 | 15 | 0 | 3.2 | 12.9 | 0.00 | 3.48 | 0.00 | 84 | 1012.9 |
| 20260506183321 | 15 | 0 | 4.8 | 9.7 | 0.00 | 3.48 | 0.00 | 84 | 1012.9 |
| 20260506182821 | 15 | 0 | 3.2 | 14.5 | 0.00 | 3.48 | 0.00 | 84 | 1012.9 |
| 20260506182318 | 15 | 0 | 4.8 | 19.3 | 0.00 | 3.48 | 0.00 | 84 | 1012.8 |
| 20260506181821 | 15 | 0 | 1.6 | 17.7 | 0.00 | 3.48 | 0.00 | 85 | 1012.7 |
| 20260506181324 | 15 | 0 | 6.4 | 19.3 | 0.00 | 3.48 | 0.00 | 85 | 1012.6 |
| 20260506180824 | 15 | 0 | 3.2 | 9.7 | 0.00 | 3.48 | 0.00 | 85 | 1012.4 |
| 20260506180321 | 15 | 0 | 3.2 | 9.7 | 0.00 | 3.48 | 0.00 | 85 | 1012.3 |
| 20260506175821 | 15 | 0 | 9.7 | 9.7 | 0.00 | 3.48 | 0.00 | 85 | 1012.3 |
| 20260506175318 | 15 | 0 | 0.0 | 9.7 | 0.00 | 3.48 | 0.00 | 85 | 1012.2 |
| 20260506174818 | 15 | 0 | 3.2 | 12.9 | 0.00 | 3.48 | 0.00 | 85 | 1012.3 |
| 20260506174321 | 15 | 0 | 14.5 | 14.5 | 0.00 | 3.48 | 0.00 | 85 | 1012.3 |
| 20260506173821 | 15 | 0 | 9.7 | 17.7 | 0.00 | 3.48 | 0.00 | 85 | 1012.3 |
| 20260506173321 | 15 | 0 | 3.2 | 16.1 | 0.00 | 3.48 | 0.00 | 84 | 1012.2 |
| 20260506172818 | 15 | 0 | 3.2 | 20.9 | 0.00 | 3.48 | 0.00 | 84 | 1012.2 |
| 20260506172318 | 15 | 0 | 4.8 | 17.7 | 0.00 | 3.48 | 0.00 | 84 | 1012.1 |
| 20260506171818 | 15 | 0 | 4.8 | 19.3 | 0.00 | 3.48 | 0.00 | 83 | 1012.0 |
| 20260506171327 | 15 | 0 | 4.8 | 14.5 | 0.00 | 3.48 | 0.00 | 83 | 1012.1 |
| 20260506170818 | 15 | 0 | 8.0 | 16.1 | 0.00 | 3.48 | 0.00 | 83 | 1012.1 |
| 20260506170318 | 15 | 0 | 9.7 | 16.1 | 0.00 | 3.48 | 0.00 | 83 | 1012.0 |
| 20260506165821 | 16 | 0 | 3.2 | 17.7 | 0.00 | 3.48 | 0.00 | 82 | 1012.0 |
| 20260506165318 | 16 | 0 | 4.8 | 9.7 | 0.00 | 3.48 | 0.00 | 82 | 1012.0 |
| 20260506164818 | 16 | 0 | 9.7 | 16.1 | 0.00 | 3.48 | 0.00 | 82 | 1012.1 |
| 20260506164321 | 16 | 0 | 3.2 | 14.5 | 0.00 | 3.48 | 0.00 | 81 | 1012.1 |
| 20260506163824 | 16 | 0 | 4.8 | 19.3 | 0.00 | 3.48 | 0.00 | 81 | 1012.2 |
| 20260506163318 | 16 | 0 | 8.0 | 16.1 | 0.00 | 3.48 | 0.00 | 81 | 1012.0 |
| 20260506162818 | 16 | 0 | 9.7 | 20.9 | 0.00 | 3.48 | 0.00 | 80 | 1012.1 |
| 20260506162318 | 16 | 0 | 9.7 | 16.1 | 0.00 | 3.48 | 0.00 | 81 | 1012.0 |
| 20260506161818 | 16 | 0 | 9.7 | 16.1 | 0.00 | 3.48 | 0.00 | 81 | 1012.0 |
| 20260506161318 | 16 | 0 | 16.1 | 19.3 | 0.00 | 3.48 | 0.00 | 81 | 1012.1 |
| 20260506160818 | 16 | 0 | 4.8 | 17.7 | 0.00 | 3.48 | 0.00 | 82 | 1012.0 |
| 20260506160318 | 16 | 0 | 4.8 | 16.1 | 0.00 | 3.48 | 0.00 | 82 | 1012.0 |
| 20260506155818 | 16 | 0 | 3.2 | 14.5 | 0.00 | 3.48 | 0.00 | 83 | 1011.9 |
| 20260506155321 | 16 | 0 | 9.7 | 17.7 | 0.00 | 3.48 | 0.00 | 82 | 1011.9 |
| 20260506154827 | 16 | 0 | 4.8 | 14.5 | 0.00 | 3.48 | 0.00 | 82 | 1011.9 |
| 20260506154318 | 16 | 0 | 4.8 | 9.7 | 0.00 | 3.48 | 0.00 | 82 | 1012.0 |
| 20260506153818 | 16 | 0 | 3.2 | 12.9 | 0.00 | 3.48 | 0.00 | 82 | 1011.9 |
| 20260506153318 | 17 | 0 | 3.2 | 17.7 | 0.00 | 3.48 | 0.00 | 81 | 1011.9 |
| 20260506152821 | 17 | 0 | 4.8 | 19.3 | 0.00 | 3.48 | 0.00 | 81 | 1011.9 |
| 20260506152321 | 17 | 0 | 6.4 | 14.5 | 0.00 | 3.48 | 0.00 | 81 | 1011.9 |
| 20260506151824 | 17 | 0 | 1.6 | 16.1 | 0.00 | 3.48 | 0.00 | 80 | 1012.0 |
| 20260506151321 | 17 | 0 | 6.4 | 19.3 | 0.00 | 3.48 | 0.00 | 80 | 1011.9 |
| 20260506150821 | 17 | 0 | 3.2 | 12.9 | 0.00 | 3.48 | 0.00 | 80 | 1012.0 |
| 20260506150327 | 17 | 0 | 6.4 | 22.5 | 0.00 | 3.48 | 0.00 | 81 | 1011.9 |
| 20260506145824 | 17 | 0 | 8.0 | 17.7 | 0.00 | 3.48 | 0.00 | 80 | 1011.9 |
| 20260506145324 | 17 | 0 | 6.4 | 16.1 | 0.00 | 3.48 | 0.00 | 79 | 1011.8 |
| 20260506144818 | 17 | 0 | 16.1 | 20.9 | 0.00 | 3.48 | 0.00 | 78 | 1011.8 |
| 20260506144318 | 17 | 0 | 6.4 | 19.3 | 0.00 | 3.48 | 0.00 | 79 | 1011.8 |
| 20260506143818 | 17 | 0 | 6.4 | 20.9 | 0.00 | 3.48 | 0.00 | 80 | 1011.7 |
| 20260506143318 | 17 | 0 | 4.8 | 17.7 | 0.00 | 3.48 | 0.00 | 80 | 1011.8 |
| 20260506142824 | 17 | 0 | 4.8 | 19.3 | 0.00 | 3.48 | 0.00 | 80 | 1011.8 |
| 20260506142321 | 17 | 0 | 6.4 | 22.5 | 0.00 | 3.48 | 0.00 | 81 | 1011.7 |
| 20260506141821 | 17 | 0 | 6.4 | 20.9 | 0.00 | 3.48 | 0.00 | 80 | 1011.8 |
| 20260506141318 | 17 | 0 | 9.7 | 25.7 | 0.00 | 3.48 | 0.00 | 79 | 1011.8 |
| 20260506140821 | 17 | 0 | 6.4 | 22.5 | 0.00 | 3.48 | 0.00 | 80 | 1011.8 |
| 20260506140318 | 17 | 0 | 8.0 | 20.9 | 0.00 | 3.48 | 0.00 | 80 | 1011.9 |
| 20260506135818 | 17 | 0 | 4.8 | 12.9 | 0.00 | 3.48 | 0.00 | 80 | 1011.9 |
| 20260506135327 | 17 | 0 | 4.8 | 19.3 | 0.00 | 3.48 | 0.00 | 79 | 1011.9 |
| 20260506134821 | 17 | 0 | 6.4 | 17.7 | 0.00 | 3.48 | 0.00 | 80 | 1012.0 |
| 20260506134324 | 17 | 0 | 4.8 | 17.7 | 0.00 | 3.48 | 0.00 | 79 | 1012.0 |
| 20260506133818 | 17 | 0 | 6.4 | 20.9 | 0.00 | 3.48 | 0.00 | 79 | 1012.0 |
| 20260506133318 | 17 | 0 | 6.4 | 17.7 | 0.00 | 3.48 | 0.00 | 79 | 1012.1 |
| 20260506132821 | 17 | 0 | 4.8 | 14.5 | 0.00 | 3.48 | 0.00 | 79 | 1012.1 |
| 20260506132321 | 17 | 0 | 6.4 | 19.3 | 0.00 | 3.48 | 0.00 | 80 | 1012.0 |
| 20260506131818 | 17 | 0 | 9.7 | 20.9 | 0.00 | 3.48 | 0.00 | 80 | 1012.1 |
| 20260506131321 | 17 | 0 | 14.5 | 19.3 | 0.00 | 3.48 | 0.00 | 81 | 1012.1 |
| 20260506130824 | 17 | 0 | 8.0 | 20.9 | 0.00 | 3.48 | 0.00 | 81 | 1012.0 |
| 20260506130321 | 17 | 0 | 9.7 | 16.1 | 0.00 | 3.48 | 0.00 | 82 | 1011.9 |
| 20260506125821 | 17 | 0 | 3.2 | 17.7 | 0.00 | 3.48 | 0.00 | 82 | 1012.0 |
| 20260506125324 | 17 | 0 | 8.0 | 19.3 | 0.00 | 3.48 | 0.00 | 82 | 1012.0 |
| 20260506124821 | 17 | 0 | 3.2 | 22.5 | 0.00 | 3.48 | 0.00 | 83 | 1011.9 |
| 20260506124318 | 17 | 0 | 17.7 | 24.1 | 0.00 | 3.48 | 0.00 | 83 | 1011.9 |
| 20260506123818 | 17 | 0 | 6.4 | 20.9 | 0.00 | 3.48 | 0.00 | 83 | 1011.8 |
| 20260506123318 | 17 | 0 | 8.0 | 19.3 | 0.00 | 3.48 | 0.00 | 83 | 1011.8 |
| 20260506122818 | 17 | 0 | 6.4 | 19.3 | 0.00 | 3.48 | 0.00 | 83 | 1011.7 |
| 20260506122321 | 17 | 0 | 6.4 | 19.3 | 0.00 | 3.48 | 0.00 | 84 | 1011.8 |
| 20260506121821 | 17 | 0 | 4.8 | 24.1 | 0.00 | 3.48 | 0.00 | 84 | 1011.7 |
| 20260506121321 | 17 | 0 | 12.9 | 22.5 | 0.00 | 3.48 | 0.00 | 85 | 1011.7 |
| 20260506120818 | 17 | 0 | 9.7 | 24.1 | 0.00 | 3.48 | 0.00 | 86 | 1011.6 |
| 20260506120318 | 17 | 0 | 6.4 | 16.1 | 0.00 | 3.48 | 0.00 | 86 | 1011.6 |
| 20260506115818 | 17 | 0 | 12.9 | 20.9 | 0.00 | 3.48 | 0.00 | 87 | 1011.6 |
| 20260506115318 | 17 | 0 | 9.7 | 22.5 | 0.00 | 3.48 | 0.00 | 87 | 1011.6 |
| 20260506114824 | 17 | 0 | 9.7 | 17.7 | 0.00 | 3.48 | 0.00 | 87 | 1011.5 |
| 20260506114321 | 16 | 0 | 3.2 | 22.5 | 0.00 | 3.48 | 0.00 | 87 | 1011.6 |
| 20260506113818 | 17 | 0 | 9.7 | 22.5 | 0.00 | 3.48 | 0.00 | 87 | 1011.6 |
| 20260506113321 | 17 | 0 | 6.4 | 17.7 | 0.00 | 3.48 | 0.00 | 87 | 1011.6 |
| 20260506112818 | 16 | 0 | 3.2 | 16.1 | 0.00 | 3.48 | 0.00 | 88 | 1011.6 |
| 20260506112324 | 16 | 0 | 3.2 | 19.3 | 0.00 | 3.48 | 0.00 | 88 | 1011.6 |
| 20260506111818 | 16 | 0 | 4.8 | 17.7 | 0.00 | 3.48 | 0.00 | 88 | 1011.5 |
| 20260506111318 | 16 | 0 | 4.8 | 17.7 | 0.00 | 3.48 | 0.00 | 88 | 1011.6 |
| 20260506110818 | 16 | 0 | 6.4 | 16.1 | 0.00 | 3.48 | 0.00 | 88 | 1011.6 |
| 20260506110321 | 16 | 0 | 4.8 | 17.7 | 0.00 | 3.48 | 0.00 | 88 | 1011.7 |
| 20260506105818 | 16 | 0 | 4.8 | 16.1 | 0.00 | 3.48 | 0.00 | 87 | 1011.7 |
| 20260506105318 | 16 | 0 | 8.0 | 17.7 | 0.00 | 3.48 | 0.00 | 87 | 1011.6 |
| 20260506104818 | 16 | 0 | 14.5 | 17.7 | 0.00 | 3.48 | 0.00 | 87 | 1011.6 |
| 20260506104318 | 16 | 0 | 8.0 | 19.3 | 0.00 | 3.48 | 0.00 | 87 | 1011.6 |
| 20260506103824 | 16 | 0 | 8.0 | 20.9 | 0.00 | 3.48 | 0.00 | 87 | 1011.6 |
| 20260506103318 | 16 | 0 | 3.2 | 12.9 | 0.00 | 3.48 | 0.00 | 88 | 1011.6 |
| 20260506102824 | 16 | 0 | 3.2 | 16.1 | 0.00 | 3.48 | 0.00 | 87 | 1011.5 |
| 20260506102321 | 16 | 0 | 14.5 | 14.5 | 0.00 | 3.48 | 0.00 | 86 | 1011.6 |
| 20260506101821 | 16 | 0 | 8.0 | 17.7 | 0.00 | 3.48 | 0.00 | 86 | 1011.5 |
| 20260506101321 | 16 | 0 | 9.7 | 17.7 | 0.00 | 3.48 | 0.00 | 85 | 1011.6 |
| 20260506100824 | 17 | 0 | 8.0 | 17.7 | 0.00 | 3.48 | 0.00 | 86 | 1011.6 |
| 20260506100321 | 16 | 0 | 3.2 | 22.5 | 0.00 | 3.48 | 0.00 | 87 | 1011.6 |
| 20260506095818 | 16 | 0 | 4.8 | 14.5 | 0.00 | 3.48 | 0.00 | 88 | 1011.5 |
| 20260506095318 | 16 | 0 | 4.8 | 14.5 | 0.00 | 3.48 | 0.00 | 88 | 1011.5 |
| 20260506094824 | 16 | 0 | 1.6 | 16.1 | 0.00 | 3.48 | 0.00 | 87 | 1011.4 |
| 20260506094324 | 16 | 0 | 4.8 | 14.5 | 0.00 | 3.48 | 0.00 | 87 | 1011.5 |
| 20260506093818 | 16 | 0 | 12.9 | 17.7 | 0.00 | 3.48 | 0.00 | 86 | 1011.6 |
| 20260506093321 | 16 | 0 | 4.8 | 17.7 | 0.00 | 3.51 | 0.00 | 87 | 1011.5 |
| 20260506092818 | 16 | 0 | 4.8 | 9.7 | 0.00 | 3.51 | 0.00 | 88 | 1011.5 |
| 20260506092318 | 16 | 0 | 4.8 | 9.7 | 0.00 | 3.51 | 0.00 | 89 | 1011.4 |
| 20260506091827 | 16 | 0 | 4.8 | 12.9 | 0.00 | 3.51 | 0.00 | 89 | 1011.4 |
| 20260506091321 | 15 | 0 | 6.4 | 14.5 | 0.00 | 3.51 | 0.00 | 90 | 1011.3 |
| 20260506090818 | 15 | 0 | 6.4 | 9.7 | 0.00 | 3.51 | 0.00 | 91 | 1011.3 |
| 20260506090321 | 15 | 0 | 3.2 | 8.0 | 0.00 | 3.51 | 0.00 | 91 | 1011.2 |
| 20260506085821 | 15 | 0 | 4.8 | 8.0 | 0.00 | 3.51 | 0.00 | 91 | 1011.2 |
| 20260506085327 | 15 | 0 | 6.4 | 14.5 | 0.00 | 3.51 | 0.00 | 91 | 1011.1 |
| 20260506084821 | 15 | 0 | 1.6 | 12.9 | 0.00 | 3.51 | 0.00 | 92 | 1011.2 |
| 20260506084321 | 15 | 0 | 4.8 | 17.7 | 0.00 | 3.51 | 0.00 | 93 | 1011.0 |
| 20260506083818 | 15 | 0 | 6.4 | 12.9 | 0.00 | 3.51 | 0.00 | 93 | 1010.9 |
| 20260506083321 | 15 | 0 | 4.8 | 9.7 | 0.00 | 3.51 | 0.00 | 93 | 1010.9 |
| 20260506082821 | 15 | 0 | 1.6 | 14.5 | 0.00 | 3.51 | 0.00 | 93 | 1010.8 |
| 20260506082318 | 15 | 0 | 4.8 | 12.9 | 0.00 | 3.51 | 0.00 | 93 | 1010.7 |
| 20260506081818 | 15 | 0 | 3.2 | 16.1 | 0.00 | 3.51 | 0.00 | 94 | 1010.8 |
| 20260506081324 | 15 | 0 | 12.9 | 14.5 | 0.00 | 3.51 | 0.00 | 94 | 1010.8 |
| 20260506080821 | 15 | 0 | 3.2 | 16.1 | 0.00 | 3.51 | 0.00 | 94 | 1010.8 |
| 20260506080318 | 15 | 0 | 6.4 | 14.5 | 0.00 | 3.51 | 0.00 | 94 | 1010.8 |
| 20260506073318 | 15 | 0 | 4.8 | 27.4 | 0.69 | 3.51 | 0.00 | 94 | 1010.4 |
| 20260506072821 | 15 | 0 | 9.7 | 30.6 | 0.69 | 3.51 | 0.00 | 94 | 1010.5 |
| 20260506072318 | 15 | 0 | 8.0 | 20.9 | 0.69 | 3.51 | 0.00 | 94 | 1010.3 |
| 20260506071818 | 15 | 0 | 3.2 | 20.9 | 0.71 | 3.51 | 0.00 | 94 | 1010.3 |
| 20260506071321 | 15 | 0 | 1.6 | 29.0 | 0.71 | 3.51 | 0.00 | 93 | 1010.4 |
| 20260506070818 | 15 | 0 | 6.4 | 25.7 | 0.71 | 3.51 | 0.00 | 93 | 1010.3 |
| 20260506070321 | 15 | 0 | 4.8 | 24.1 | 0.71 | 3.51 | 0.00 | 93 | 1010.1 |
| 20260506062321 | 15 | 0 | 1.6 | 16.1 | 0.00 | 2.82 | 0.00 | 91 | 1009.8 |
| 20260506061821 | 15 | 0 | 3.2 | 17.7 | 0.00 | 2.82 | 0.00 | 91 | 1009.9 |
| 20260506061321 | 15 | 0 | 6.4 | 9.7 | 0.00 | 2.84 | 0.00 | 91 | 1009.9 |
| 20260506060821 | 14 | 0 | 1.6 | 17.7 | 0.00 | 2.90 | 0.00 | 90 | 1009.8 |
| 20260506060324 | 14 | 0 | 1.6 | 12.9 | 0.00 | 2.92 | 0.00 | 90 | 1009.9 |
| 20260506051321 | 13 | 0 | 3.2 | 9.7 | 0.00 | 3.76 | 0.00 | 88 | 1010.2 |
| 20260506050818 | 13 | 0 | 1.6 | 8.0 | 0.00 | 3.84 | 0.00 | 89 | 1010.3 |
| 20260506050318 | 13 | 0 | 4.8 | 6.4 | 0.00 | 3.86 | 0.00 | 88 | 1010.1 |
| 20260506044821 | 13 | 0 | 9.7 | 22.5 | 0.00 | 4.04 | 0.00 | 88 | 1010.0 |
| 20260506044327 | 13 | 0 | 3.2 | 17.7 | 0.00 | 4.04 | 0.00 | 88 | 1010.1 |
| 20260506043821 | 13 | 0 | 8.0 | 17.7 | 0.00 | 4.11 | 0.00 | 88 | 1010.2 |
| 20260506043318 | 13 | 0 | 6.4 | 14.5 | 0.00 | 4.27 | 0.00 | 88 | 1010.4 |
| 20260506042821 | 13 | 0 | 1.6 | 12.9 | 0.00 | 4.37 | 0.00 | 87 | 1010.5 |
| 20260506042321 | 13 | 0 | 3.2 | 14.5 | 0.00 | 4.47 | 0.00 | 87 | 1010.3 |
| 20260506041827 | 13 | 0 | 3.2 | 8.0 | 0.00 | 4.60 | 0.00 | 86 | 1010.7 |
| 20260506041318 | 13 | 0 | 3.2 | 4.8 | 0.00 | 4.70 | 0.00 | 86 | 1011.0 |
| 20260506040818 | 13 | 0 | 1.6 | 3.2 | 0.00 | 4.78 | 0.00 | 85 | 1011.2 |
| 20260506040318 | 13 | 0 | 3.2 | 14.5 | 0.00 | 4.98 | 0.00 | 85 | 1011.2 |
| 20260506035821 | 13 | 0 | 4.8 | 12.9 | 0.00 | 5.23 | 0.00 | 84 | 1011.1 |
| 20260506035318 | 13 | 0 | 8.0 | 17.7 | 0.00 | 5.26 | 0.00 | 83 | 1011.0 |
| 20260506034818 | 13 | 0 | 6.4 | 19.3 | 0.00 | 5.28 | 0.00 | 83 | 1011.0 |
| 20260506034318 | 13 | 0 | 16.1 | 24.1 | 0.00 | 5.36 | 0.00 | 83 | 1010.6 |
| 20260506033818 | 13 | 0 | 14.5 | 22.5 | 0.03 | 5.36 | 0.00 | 84 | 1010.6 |
| 20260506033318 | 13 | 0 | 9.7 | 20.9 | 0.03 | 5.38 | 0.00 | 84 | 1010.8 |
| 20260506032821 | 13 | 0 | 9.7 | 20.9 | 0.05 | 5.44 | 0.00 | 84 | 1010.7 |
| 20260506032318 | 13 | 0 | 17.7 | 20.9 | 0.08 | 5.51 | 0.00 | 84 | 1010.6 |
| 20260506031818 | 13 | 0 | 4.8 | 30.6 | 0.08 | 5.56 | 0.00 | 84 | 1010.5 |
| 20260506031318 | 13 | 0 | 14.5 | 24.1 | 0.08 | 5.64 | 0.00 | 85 | 1010.5 |
| 20260506030824 | 13 | 0 | 4.8 | 35.4 | 0.15 | 5.71 | 0.00 | 85 | 1010.8 |
| 20260506030318 | 13 | 0 | 19.3 | 35.4 | 0.23 | 5.77 | 0.00 | 85 | 1010.9 |
| 20260506025821 | 13 | 0 | 19.3 | 32.2 | 0.36 | 5.77 | 0.00 | 85 | 1010.9 |
| 20260506025324 | 13 | 0 | 4.8 | 25.7 | 0.46 | 5.79 | 0.00 | 84 | 1011.1 |
| 20260506024818 | 13 | 0 | 6.4 | 24.1 | 0.51 | 5.82 | 0.00 | 84 | 1011.3 |
| 20260506024321 | 13 | 0 | 8.0 | 20.9 | 0.64 | 5.82 | 0.00 | 86 | 1011.5 |
| 20260506023821 | 13 | 0 | 12.9 | 20.9 | 0.84 | 5.82 | 0.00 | 88 | 1011.7 |
| 20260506023318 | 13 | 0 | 6.4 | 24.1 | 1.19 | 5.87 | 0.00 | 89 | 1011.7 |
| 20260506022818 | 12 | 0 | 4.8 | 24.1 | 1.50 | 5.89 | 0.00 | 90 | 1011.7 |
| 20260506022321 | 12 | 0 | 4.8 | 25.7 | 1.70 | 5.87 | 0.00 | 90 | 1011.9 |
| 20260506021818 | 12 | 0 | 6.4 | 20.9 | 1.78 | 5.89 | 0.00 | 90 | 1011.8 |
| 20260506021321 | 12 | 0 | 4.8 | 17.7 | 1.85 | 5.92 | 0.00 | 90 | 1011.8 |
| 20260506020818 | 12 | 0 | 8.0 | 17.7 | 1.85 | 5.89 | 0.00 | 90 | 1011.9 |
| 20260506020318 | 12 | 0 | 1.6 | 14.5 | 1.80 | 5.82 | 0.00 | 90 | 1012.0 |
| 20260506015821 | 12 | 0 | 9.7 | 16.1 | 1.68 | 5.71 | 0.00 | 90 | 1012.0 |
| 20260506015318 | 12 | 0 | 3.2 | 12.9 | 1.63 | 5.64 | 0.00 | 90 | 1012.4 |
| 20260506014821 | 12 | 0 | 3.2 | 6.4 | 1.60 | 5.59 | 0.00 | 90 | 1012.8 |
| 20260506014318 | 12 | 0 | 3.2 | 4.8 | 1.52 | 5.49 | 0.00 | 90 | 1012.9 |
| 20260506013821 | 12 | 0 | 4.8 | 8.0 | 1.30 | 5.26 | 0.00 | 89 | 1012.9 |
| 20260506013321 | 13 | 0 | 4.8 | 6.4 | 1.19 | 4.95 | 0.00 | 89 | 1013.2 |
| 20260506012821 | 13 | 0 | 1.6 | 3.2 | 0.94 | 4.62 | 0.00 | 90 | 1013.2 |
| 20260506012318 | 13 | 0 | 1.6 | 8.0 | 0.74 | 4.42 | 0.00 | 89 | 1012.8 |
| 20260506011818 | 13 | 0 | 3.2 | 16.1 | 0.76 | 4.34 | 0.00 | 89 | 1012.6 |
| 20260506011324 | 14 | 0 | 6.4 | 14.5 | 0.76 | 4.32 | 0.00 | 91 | 1012.6 |
| 20260506010818 | 14 | 0 | 4.8 | 8.0 | 0.71 | 4.24 | 0.00 | 91 | 1012.6 |
| 20260506010324 | 14 | 0 | 3.2 | 3.2 | 0.66 | 4.22 | 0.00 | 91 | 1012.7 |
| 20260506005821 | 14 | 0 | 0.0 | 1.6 | 0.64 | 4.22 | 0.00 | 91 | 1012.7 |
| 20260506005324 | 14 | 0 | 0.0 | 1.6 | 0.61 | 4.22 | 0.00 | 91 | 1012.7 |
| 20260506004824 | 14 | 0 | 0.0 | 8.0 | 0.56 | 4.19 | 0.00 | 91 | 1012.9 |
| 20260506004318 | 15 | 0 | 3.2 | 8.0 | 0.53 | 4.14 | 0.00 | 90 | 1012.9 |
| 20260506003821 | 15 | 0 | 1.6 | 9.7 | 0.51 | 4.11 | 0.00 | 90 | 1012.8 |
| 20260506003318 | 15 | 0 | 3.2 | 9.7 | 0.28 | 3.91 | 0.00 | 90 | 1012.7 |
| 20260506002818 | 15 | 0 | 4.8 | 12.9 | 0.20 | 3.84 | 0.00 | 90 | 1012.6 |
| 20260506002327 | 15 | 0 | 1.6 | 9.7 | 0.15 | 3.76 | 0.00 | 90 | 1012.6 |
| 20260506001818 | 15 | 0 | 4.8 | 6.4 | 0.05 | 3.66 | 0.00 | 91 | 1012.6 |
| 20260506001321 | 15 | 0 | 3.2 | 6.4 | 0.00 | 3.61 | 0.00 | 91 | 1012.5 |
| 20260506000818 | 15 | 0 | 0.0 | 6.4 | 0.00 | 3.61 | 0.00 | 91 | 1012.6 |
| 20260506000318 | 15 | 0 | 3.2 | 6.4 | 0.00 | 3.61 | 0.00 | 91 | 1012.7 |
| 20260505235818 | 15 | 0 | 1.6 | 4.8 | 0.00 | 3.61 | 0.00 | 91 | 1012.9 |
| 20260505235324 | 15 | 0 | 3.2 | 6.4 | 0.00 | 3.61 | 0.00 | 90 | 1012.9 |
| 20260505234818 | 15 | 0 | 0.0 | 1.6 | 0.00 | 3.61 | 0.00 | 90 | 1012.9 |
| 20260505234321 | 15 | 0 | 0.0 | 12.9 | 0.00 | 3.61 | 0.00 | 90 | 1013.2 |
| 20260505233824 | 15 | 0 | 0.0 | 4.8 | 0.00 | 3.61 | 0.00 | 90 | 1013.4 |
| 20260505233318 | 15 | 0 | 1.6 | 6.4 | 0.00 | 3.61 | 0.00 | 89 | 1013.4 |
| 20260505232818 | 15 | 0 | 4.8 | 9.7 | 0.00 | 3.61 | 0.00 | 90 | 1013.5 |
| 20260505232318 | 15 | 0 | 0.0 | 0.0 | 0.00 | 3.61 | 0.00 | 89 | 1013.5 |
| 20260505231818 | 15 | 0 | 0.0 | 0.0 | 0.00 | 3.61 | 0.00 | 89 | 1013.5 |
| 20260505231321 | 15 | 0 | 0.0 | 0.0 | 0.00 | 3.61 | 0.00 | 89 | 1013.7 |
| 20260505230818 | 15 | 0 | 0.0 | 0.0 | 0.00 | 3.61 | 0.00 | 89 | 1013.8 |
| 20260505230318 | 15 | 0 | 0.0 | 0.0 | 0.00 | 3.61 | 0.00 | 89 | 1013.9 |
| 20260505225818 | 15 | 0 | 0.0 | 0.0 | 0.00 | 3.61 | 0.00 | 89 | 1013.8 |
| 20260505225318 | 15 | 0 | 0.0 | 0.0 | 0.00 | 3.61 | 0.00 | 89 | 1013.8 |
| 20260505224821 | 15 | 0 | 0.0 | 0.0 | 0.00 | 3.61 | 0.00 | 89 | 1013.9 |